TimeEST,TemperatureF,Dew PointF,Humidity,Sea Level PressureIn,VisibilityMPH,Wind Direction,Wind SpeedMPH,Gust SpeedMPH,PrecipitationIn,Events,Conditions,WindDirDegrees,DateUTC
12:13 AM,53.6,51.8,94,30.11,8.0,NE,6.9,-,N/A,,Overcast,40,2012-12-12 05:13:00
12:57 AM,53.1,50.0,89,30.13,10.0,NE,5.8,-,N/A,,Overcast,40,2012-12-12 05:57:00
1:57 AM,53.1,50.0,89,30.12,10.0,NNE,8.1,-,N/A,,Overcast,30,2012-12-12 06:57:00
2:57 AM,52.0,50.0,93,30.13,10.0,NNE,11.5,19.6,N/A,,Overcast,30,2012-12-12 07:57:00
3:57 AM,51.1,48.0,89,30.13,10.0,NNE,9.2,-,0.00,Rain,Light Rain,30,2012-12-12 08:57:00
4:04 AM,51.8,48.2,88,30.13,10.0,NNE,9.2,-,0.00,,Overcast,20,2012-12-12 09:04:00
4:57 AM,51.1,46.0,83,30.16,10.0,NE,8.1,-,0.00,,Overcast,40,2012-12-12 09:57:00
5:57 AM,51.1,46.0,83,30.17,10.0,NNE,8.1,-,N/A,,Overcast,30,2012-12-12 10:57:00
6:57 AM,50.0,46.0,86,30.18,10.0,NNE,11.5,19.6,N/A,,Overcast,30,2012-12-12 11:57:00
7:20 AM,50.0,46.4,87,30.18,10.0,Variable,6.9,-,N/A,,Overcast,0,2012-12-12 12:20:00
7:57 AM,50.0,46.9,89,30.20,10.0,NNE,11.5,-,N/A,,Overcast,20,2012-12-12 12:57:00
8:57 AM,50.0,46.9,89,30.22,9.0,NE,9.2,-,N/A,,Overcast,40,2012-12-12 13:57:00
9:57 AM,50.0,46.9,89,30.23,10.0,NNE,11.5,-,N/A,,Overcast,30,2012-12-12 14:57:00
10:57 AM,50.0,46.0,86,30.24,10.0,NNE,11.5,20.7,N/A,,Overcast,20,2012-12-12 15:57:00
11:57 AM,48.9,46.0,90,30.22,10.0,NNE,9.2,19.6,0.00,Rain,Light Rain,20,2012-12-12 16:57:00
12:57 PM,48.9,46.0,90,30.20,10.0,North,9.2,19.6,0.01,,Overcast,10,2012-12-12 17:57:00
1:57 PM,48.9,46.0,90,30.19,10.0,NNE,15.0,24.2,N/A,,Overcast,20,2012-12-12 18:57:00
2:57 PM,48.9,46.0,90,30.19,10.0,NNE,11.5,19.6,0.00,,Overcast,20,2012-12-12 19:57:00
3:57 PM,48.9,46.0,90,30.19,10.0,NNE,15.0,23.0,0.01,,Overcast,20,2012-12-12 20:57:00
4:57 PM,48.0,45.0,89,30.22,5.0,NNE,12.7,24.2,0.02,Rain,Rain,20,2012-12-12 21:57:00
5:57 PM,46.9,44.1,90,30.23,9.0,North,12.7,19.6,0.05,Rain,Light Rain,10,2012-12-12 22:57:00
6:57 PM,46.0,43.0,89,30.25,5.0,North,12.7,19.6,0.10,Rain,Rain,10,2012-12-12 23:57:00
7:21 PM,44.6,42.8,93,30.23,8.0,NNE,13.8,25.3,0.02,Rain,Light Rain,20,2012-12-13 00:21:00
7:57 PM,45.0,42.1,90,30.23,10.0,NNE,16.1,23.0,0.02,,Overcast,20,2012-12-13 00:57:00
8:57 PM,45.0,42.1,90,30.21,10.0,NE,16.1,23.0,0.03,,Overcast,40,2012-12-13 01:57:00
9:52 PM,46.4,42.8,87,30.19,10.0,North,12.7,24.2,N/A,,Overcast,10,2012-12-13 02:52:00
9:57 PM,46.0,43.0,89,30.21,10.0,NNE,12.7,24.2,N/A,,Overcast,20,2012-12-13 02:57:00
10:57 PM,46.0,44.1,93,30.18,6.0,North,13.8,24.2,0.03,Rain,Light Rain,10,2012-12-13 03:57:00
11:57 PM,46.0,44.1,93,30.21,4.0,North,10.4,20.7,0.08,Rain,Heavy Rain,350,2012-12-13 04:57:00